Time,TemperatureF,DewpointF,PressureIn,WindDirection,WindDirectionDegrees,WindSpeedMPH,WindSpeedGustMPH,Humidity,HourlyPrecipIn,Conditions,Clouds,dailyrainin,SolarRadiationWatts/m^2,SoftwareType,DateUTC
2013-02-13 00:01:00,22.7,18.6,29.80,SW,236,3.0,5.0,84,0.00,,---,0.03,0.00,VWS V14.01,2013-02-13 06:01:00,
2013-02-13 00:06:00,22.8,18.7,29.80,SW,234,5.0,6.0,84,0.00,,---,0.00,0.00,VWS V14.01,2013-02-13 06:06:00,
2013-02-13 00:11:00,22.8,18.7,29.80,SW,236,1.0,7.0,84,0.00,,---,0.00,0.00,VWS V14.01,2013-02-13 06:11:00,
2013-02-13 00:16:00,22.8,18.7,29.79,SW,236,3.0,4.0,84,0.00,,---,0.00,0.00,VWS V14.01,2013-02-13 06:16:00,
2013-02-13 00:21:00,22.8,18.7,29.79,SW,236,9.0,9.0,84,0.00,,---,0.00,0.00,VWS V14.01,2013-02-13 06:21:00,
2013-02-13 00:26:00,22.9,18.8,29.79,WSW,237,4.0,5.0,84,0.00,,---,0.00,0.00,VWS V14.01,2013-02-13 06:26:00,
2013-02-13 00:32:00,23.0,18.9,29.80,WSW,238,1.0,5.0,84,0.00,,---,0.00,0.00,VWS V14.01,2013-02-13 06:32:00,
2013-02-13 00:37:00,23.0,18.9,29.80,WSW,238,2.0,5.0,84,0.00,,---,0.00,0.00,VWS V14.01,2013-02-13 06:37:00,
2013-02-13 00:42:00,23.0,18.9,29.80,WSW,244,1.0,5.0,84,0.00,,---,0.00,0.00,VWS V14.01,2013-02-13 06:42:00,
2013-02-13 00:47:00,23.1,19.0,29.79,WSW,246,4.0,6.0,84,0.00,,---,0.00,0.00,VWS V14.01,2013-02-13 06:47:00,
2013-02-13 00:52:00,23.0,18.9,29.79,WSW,246,3.0,7.0,84,0.00,,---,0.00,0.00,VWS V14.01,2013-02-13 06:52:00,
2013-02-13 00:57:00,23.0,18.9,29.79,WSW,248,4.0,6.0,84,0.00,,---,0.00,0.00,VWS V14.01,2013-02-13 06:57:00,
2013-02-13 01:02:00,23.0,18.9,29.79,WSW,249,4.0,5.0,84,0.00,,---,0.00,0.00,VWS V14.01,2013-02-13 07:02:00,
2013-02-13 01:07:00,23.0,18.9,29.79,WSW,249,5.0,6.0,84,0.00,,---,0.00,0.00,VWS V14.01,2013-02-13 07:07:00,
2013-02-13 01:12:00,22.9,18.8,29.79,WSW,251,4.0,5.0,84,0.00,,---,0.00,0.00,VWS V14.01,2013-02-13 07:12:00,
2013-02-13 01:17:00,22.7,18.6,29.78,WSW,251,3.0,5.0,84,0.00,,---,0.00,0.00,VWS V14.01,2013-02-13 07:17:00,
2013-02-13 01:22:00,22.6,18.5,29.78,WSW,250,4.0,5.0,84,0.00,,---,0.00,0.00,VWS V14.01,2013-02-13 07:22:00,
2013-02-13 01:27:00,22.5,18.4,29.78,WSW,251,3.0,5.0,84,0.00,,---,0.00,0.00,VWS V14.01,2013-02-13 07:27:00,
2013-02-13 01:32:00,22.3,18.2,29.78,WSW,250,2.0,3.0,84,0.00,,---,0.00,0.00,VWS V14.01,2013-02-13 07:32:00,
2013-02-13 01:37:00,22.2,18.4,29.78,WSW,252,2.0,5.0,85,0.00,,---,0.00,0.00,VWS V14.01,2013-02-13 07:37:00,
2013-02-13 01:42:00,22.2,18.4,29.78,WSW,250,3.0,5.0,85,0.00,,---,0.00,0.00,VWS V14.01,2013-02-13 07:42:00,
2013-02-13 01:47:00,22.3,20.3,29.77,WSW,252,3.0,4.0,92,0.00,,---,0.00,0.00,VWS V14.01,2013-02-13 07:47:00,
2013-02-13 01:52:00,22.4,18.6,29.77,WSW,251,3.0,3.0,85,0.00,,---,0.00,0.00,VWS V14.01,2013-02-13 07:52:00,
2013-02-13 01:57:00,22.4,18.6,29.77,WSW,252,3.0,5.0,85,0.00,,---,0.00,0.00,VWS V14.01,2013-02-13 07:57:00,
2013-02-13 02:02:00,22.5,18.7,29.77,WSW,251,2.0,5.0,85,0.00,,---,0.00,0.00,VWS V14.01,2013-02-13 08:02:00,
2013-02-13 02:07:00,22.6,18.8,29.77,WSW,251,4.0,5.0,85,0.00,,---,0.00,0.00,VWS V14.01,2013-02-13 08:07:00,
2013-02-13 02:12:00,22.7,18.9,29.77,WSW,251,4.0,4.0,85,0.00,,---,0.00,0.00,VWS V14.01,2013-02-13 08:12:00,
2013-02-13 02:18:00,22.7,18.9,29.77,WSW,251,3.0,5.0,85,0.00,,---,0.00,0.00,VWS V14.01,2013-02-13 08:18:00,
2013-02-13 02:23:00,22.8,19.0,29.77,WSW,252,3.0,5.0,85,0.00,,---,0.00,0.00,VWS V14.01,2013-02-13 08:23:00,
2013-02-13 02:28:00,22.9,19.1,29.77,WSW,251,4.0,4.0,85,0.00,,---,0.00,0.00,VWS V14.01,2013-02-13 08:28:00,
2013-02-13 02:33:00,22.9,19.1,29.76,WSW,251,1.0,5.0,85,0.00,,---,0.00,0.00,VWS V14.01,2013-02-13 08:33:00,
2013-02-13 02:38:00,22.9,19.1,29.76,WSW,251,2.0,4.0,85,0.00,,---,0.00,0.00,VWS V14.01,2013-02-13 08:38:00,
2013-02-13 02:43:00,23.0,19.2,29.76,WSW,249,7.0,7.0,85,0.00,,---,0.00,0.00,VWS V14.01,2013-02-13 08:43:00,
2013-02-13 02:48:00,23.0,19.2,29.76,WSW,245,1.0,6.0,85,0.00,,---,0.00,0.00,VWS V14.01,2013-02-13 08:48:00,
2013-02-13 02:53:00,23.0,19.2,29.76,WSW,245,2.0,4.0,85,0.00,,---,0.00,0.00,VWS V14.01,2013-02-13 08:53:00,
2013-02-13 02:58:00,23.1,19.3,29.76,WSW,244,3.0,5.0,85,0.00,,---,0.00,0.00,VWS V14.01,2013-02-13 08:58:00,
2013-02-13 03:03:00,23.1,19.3,29.76,WSW,238,5.0,6.0,85,0.00,,---,0.00,0.00,VWS V14.01,2013-02-13 09:03:00,
2013-02-13 03:08:00,23.2,19.4,29.76,SW,234,3.0,5.0,85,0.00,,---,0.00,0.00,VWS V14.01,2013-02-13 09:08:00,
2013-02-13 03:13:00,23.2,19.4,29.76,SW,234,1.0,3.0,85,0.00,,---,0.00,0.00,VWS V14.01,2013-02-13 09:13:00,
2013-02-13 03:18:00,23.3,19.5,29.76,SW,234,3.0,5.0,85,0.00,,---,0.00,0.00,VWS V14.01,2013-02-13 09:18:00,
2013-02-13 03:23:00,23.3,19.5,29.76,SW,234,5.0,6.0,85,0.00,,---,0.00,0.00,VWS V14.01,2013-02-13 09:23:00,
2013-02-13 03:28:00,23.3,19.5,29.76,SW,234,3.0,4.0,85,0.00,,---,0.00,0.00,VWS V14.01,2013-02-13 09:28:00,
2013-02-13 03:33:00,23.3,19.5,29.75,SW,234,2.0,4.0,85,0.00,,---,0.00,0.00,VWS V14.01,2013-02-13 09:33:00,
2013-02-13 03:38:00,23.3,19.5,29.75,SW,233,2.0,7.0,85,0.00,,---,0.00,0.00,VWS V14.01,2013-02-13 09:38:00,
2013-02-13 03:43:00,23.3,19.5,29.75,WSW,242,5.0,10.0,85,0.00,,---,0.00,0.00,VWS V14.01,2013-02-13 09:43:00,
2013-02-13 03:49:00,23.2,19.4,29.75,SW,234,3.0,6.0,85,0.00,,---,0.00,0.00,VWS V14.01,2013-02-13 09:49:00,
2013-02-13 03:54:00,23.2,19.6,29.75,SW,236,7.0,7.0,86,0.00,,---,0.00,0.00,VWS V14.01,2013-02-13 09:54:00,
2013-02-13 03:59:00,23.1,19.5,29.75,WSW,239,4.0,5.0,86,0.00,,---,0.00,0.00,VWS V14.01,2013-02-13 09:59:00,
2013-02-13 04:04:00,23.0,19.5,29.75,WSW,237,3.0,6.0,86,0.00,,---,0.00,0.00,VWS V14.01,2013-02-13 10:04:00,
2013-02-13 04:09:00,22.8,19.2,29.75,SW,236,4.0,6.0,86,0.00,,---,0.00,0.00,VWS V14.01,2013-02-13 10:09:00,
2013-02-13 04:14:00,22.7,19.1,29.75,SW,236,5.0,6.0,86,0.00,,---,0.00,0.00,VWS V14.01,2013-02-13 10:14:00,
2013-02-13 04:19:00,22.6,19.0,29.75,SW,236,4.0,6.0,86,0.00,,---,0.00,0.00,VWS V14.01,2013-02-13 10:19:00,
2013-02-13 04:24:00,22.5,19.0,29.75,SW,234,6.0,6.0,86,0.00,,---,0.00,0.00,VWS V14.01,2013-02-13 10:24:00,
2013-02-13 04:29:00,22.4,18.9,29.75,SW,235,3.0,6.0,86,0.00,,---,0.00,0.00,VWS V14.01,2013-02-13 10:29:00,
2013-02-13 04:34:00,22.2,18.7,29.75,SW,232,5.0,6.0,86,0.00,,---,0.00,0.00,VWS V14.01,2013-02-13 10:34:00,
2013-02-13 04:39:00,22.1,18.6,29.75,WSW,237,2.0,6.0,86,0.00,,---,0.00,0.00,VWS V14.01,2013-02-13 10:39:00,
2013-02-13 04:44:00,22.0,18.5,29.75,WSW,237,1.0,5.0,86,0.00,,---,0.00,0.00,VWS V14.01,2013-02-13 10:44:00,
2013-02-13 04:49:00,21.9,18.6,29.75,SW,234,4.0,5.0,87,0.00,,---,0.00,0.00,VWS V14.01,2013-02-13 10:49:00,
2013-02-13 04:54:00,21.9,18.6,29.75,SW,235,3.0,5.0,87,0.00,,---,0.00,0.00,VWS V14.01,2013-02-13 10:54:00,
2013-02-13 04:59:00,21.8,18.5,29.75,SW,235,4.0,5.0,87,0.00,,---,0.00,0.00,VWS V14.01,2013-02-13 10:59:00,
2013-02-13 05:04:00,21.8,18.5,29.75,SW,236,5.0,9.0,87,0.00,,---,0.00,0.00,VWS V14.01,2013-02-13 11:04:00,
2013-02-13 05:09:00,21.8,18.5,29.75,WSW,237,4.0,5.0,87,0.00,,---,0.00,0.00,VWS V14.01,2013-02-13 11:09:00,
2013-02-13 05:14:00,21.8,18.5,29.75,WSW,238,8.0,8.0,87,0.00,,---,0.00,0.00,VWS V14.01,2013-02-13 11:14:00,
2013-02-13 05:20:00,21.9,18.6,29.75,WSW,239,5.0,6.0,87,0.00,,---,0.00,0.00,VWS V14.01,2013-02-13 11:20:00,
2013-02-13 05:25:00,22.0,18.7,29.75,WSW,239,3.0,7.0,87,0.00,,---,0.00,0.00,VWS V14.01,2013-02-13 11:25:00,
2013-02-13 05:30:00,22.0,18.7,29.75,WSW,238,4.0,6.0,87,0.00,,---,0.00,0.00,VWS V14.01,2013-02-13 11:30:00,
2013-02-13 05:35:00,22.2,19.2,29.75,SW,236,3.0,7.0,88,0.00,,---,0.00,0.00,VWS V14.01,2013-02-13 11:35:00,
2013-02-13 05:40:00,22.3,19.0,29.75,SW,236,4.0,4.0,87,0.00,,---,0.00,0.00,VWS V14.01,2013-02-13 11:40:00,
2013-02-13 05:45:00,22.4,19.4,29.75,SW,236,3.0,3.0,88,0.00,,---,0.00,0.00,VWS V14.01,2013-02-13 11:45:00,
2013-02-13 05:50:00,22.4,19.4,29.75,SW,236,1.0,5.0,88,0.00,,---,0.00,0.00,VWS V14.01,2013-02-13 11:50:00,
2013-02-13 05:55:00,22.5,19.5,29.75,SW,235,3.0,4.0,88,0.00,,---,0.00,0.00,VWS V14.01,2013-02-13 11:55:00,
2013-02-13 06:00:00,22.6,19.6,29.75,SW,233,5.0,5.0,88,0.00,,---,0.00,0.00,VWS V14.01,2013-02-13 12:00:00,
2013-02-13 06:05:00,22.7,19.4,29.74,SW,232,3.0,5.0,87,0.00,,---,0.00,0.00,VWS V14.01,2013-02-13 12:05:00,
2013-02-13 06:10:00,22.8,19.5,29.74,SW,232,4.0,5.0,87,0.00,,---,0.00,0.00,VWS V14.01,2013-02-13 12:10:00,
2013-02-13 06:15:00,22.8,19.5,29.74,SW,232,4.0,4.0,87,0.00,,---,0.00,0.00,VWS V14.01,2013-02-13 12:15:00,
2013-02-13 06:20:00,22.8,19.5,29.74,SW,233,3.0,3.0,87,0.00,,---,0.00,0.00,VWS V14.01,2013-02-13 12:20:00,
2013-02-13 06:25:00,22.9,19.6,29.74,SW,232,4.0,5.0,87,0.00,,---,0.00,0.00,VWS V14.01,2013-02-13 12:25:00,
2013-02-13 06:30:00,22.9,19.6,29.74,SW,232,3.0,3.0,87,0.00,,---,0.00,0.00,VWS V14.01,2013-02-13 12:30:00,
2013-02-13 06:35:00,22.8,19.5,29.74,SW,230,0.0,4.0,87,0.00,,---,0.00,0.00,VWS V14.01,2013-02-13 12:35:00,
2013-02-13 06:40:00,22.7,19.4,29.74,SW,230,4.0,4.0,87,0.00,,---,0.00,0.00,VWS V14.01,2013-02-13 12:40:00,
2013-02-13 06:45:00,22.6,19.3,29.72,SW,230,3.0,5.0,87,0.00,,---,0.00,0.00,VWS V14.01,2013-02-13 12:45:00,
2013-02-13 06:50:00,22.5,19.2,29.72,SW,229,3.0,5.0,87,0.00,,---,0.00,0.00,VWS V14.01,2013-02-13 12:50:00,
2013-02-13 06:55:00,22.5,19.2,29.72,SW,229,2.0,4.0,87,0.00,,---,0.00,0.00,VWS V14.01,2013-02-13 12:55:00,
2013-02-13 07:00:00,22.4,19.1,29.72,SW,229,4.0,5.0,87,0.00,,---,0.00,0.00,VWS V14.01,2013-02-13 13:00:00,
2013-02-13 07:05:00,22.3,19.0,29.72,SW,229,2.0,3.0,87,0.00,,---,0.00,0.00,VWS V14.01,2013-02-13 13:05:00,
2013-02-13 07:11:00,22.3,19.0,29.72,SW,230,3.0,4.0,87,0.00,,---,0.00,0.00,VWS V14.01,2013-02-13 13:11:00,
2013-02-13 07:16:00,22.3,19.3,29.73,SW,226,3.0,7.0,88,0.00,,---,0.00,0.00,VWS V14.01,2013-02-13 13:16:00,
2013-02-13 07:21:00,22.4,19.1,29.73,SW,227,3.0,5.0,87,0.00,,---,0.00,0.00,VWS V14.01,2013-02-13 13:21:00,
2013-02-13 07:26:00,22.5,19.5,29.73,SW,225,5.0,6.0,88,0.00,,---,0.00,7.00,VWS V14.01,2013-02-13 13:26:00,
2013-02-13 07:31:00,22.5,19.2,29.73,SW,225,4.0,5.0,87,0.00,,---,0.00,7.00,VWS V14.01,2013-02-13 13:31:00,
2013-02-13 07:36:00,22.4,19.1,29.73,SW,223,3.0,7.0,87,0.00,,---,0.00,11.00,VWS V14.01,2013-02-13 13:36:00,
2013-02-13 07:41:00,22.3,19.0,29.73,SW,221,4.0,4.0,87,0.00,,---,0.00,14.00,VWS V14.01,2013-02-13 13:41:00,
2013-02-13 07:46:00,22.3,19.0,29.73,SW,221,5.0,5.0,87,0.00,,---,0.00,18.00,VWS V14.01,2013-02-13 13:46:00,
2013-02-13 07:51:00,22.1,18.8,29.73,SW,221,5.0,5.0,87,0.00,,---,0.00,26.00,VWS V14.01,2013-02-13 13:51:00,
2013-02-13 07:56:00,22.0,18.7,29.73,SW,219,3.0,5.0,87,0.00,,---,0.00,28.00,VWS V14.01,2013-02-13 13:56:00,
2013-02-13 08:01:00,22.0,18.7,29.72,SW,219,5.0,6.0,87,0.00,,---,0.00,39.00,VWS V14.01,2013-02-13 14:01:00,
2013-02-13 08:06:00,22.0,18.7,29.72,SW,217,2.0,6.0,87,0.00,,---,0.00,33.00,VWS V14.01,2013-02-13 14:06:00,
2013-02-13 08:11:00,22.1,18.8,29.72,SW,216,5.0,5.0,87,0.00,,---,0.00,40.00,VWS V14.01,2013-02-13 14:11:00,
2013-02-13 08:16:00,22.2,18.9,29.72,SW,217,3.0,5.0,87,0.00,,---,0.00,47.00,VWS V14.01,2013-02-13 14:16:00,
2013-02-13 08:21:00,22.2,18.9,29.72,SW,214,4.0,7.0,87,0.00,,---,0.00,46.00,VWS V14.01,2013-02-13 14:21:00,
2013-02-13 08:26:00,22.1,18.8,29.72,SSW,207,2.0,6.0,87,0.00,,---,0.00,44.00,VWS V14.01,2013-02-13 14:26:00,
2013-02-13 08:32:00,22.2,18.9,29.72,SSW,210,6.0,7.0,87,0.00,,---,0.00,51.00,VWS V14.01,2013-02-13 14:32:00,
2013-02-13 08:37:00,22.3,19.0,29.72,SSW,209,3.0,6.0,87,0.00,,---,0.00,56.00,VWS V14.01,2013-02-13 14:37:00,
2013-02-13 08:42:00,22.4,18.9,29.72,SSW,209,5.0,9.0,86,0.00,,---,0.00,67.00,VWS V14.01,2013-02-13 14:42:00,
2013-02-13 08:47:00,22.6,19.0,29.72,SSW,210,5.0,6.0,86,0.00,,---,0.00,67.00,VWS V14.01,2013-02-13 14:47:00,
2013-02-13 08:52:00,22.6,19.0,29.72,SSW,207,7.0,7.0,86,0.00,,---,0.00,79.00,VWS V14.01,2013-02-13 14:52:00,
2013-02-13 08:57:00,22.7,19.1,29.72,SSW,205,5.0,6.0,86,0.00,,---,0.00,102.00,VWS V14.01,2013-02-13 14:57:00,
2013-02-13 09:02:00,22.9,19.4,29.72,SSW,203,5.0,7.0,86,0.00,,---,0.00,137.00,VWS V14.01,2013-02-13 15:02:00,
2013-02-13 09:07:00,23.2,19.6,29.72,SSW,205,4.0,7.0,86,0.00,,---,0.00,135.00,VWS V14.01,2013-02-13 15:07:00,
2013-02-13 09:12:00,23.2,19.4,29.72,SSW,199,7.0,9.0,85,0.00,,---,0.00,113.00,VWS V14.01,2013-02-13 15:12:00,
2013-02-13 09:17:00,23.3,19.5,29.72,SSW,200,5.0,8.0,85,0.00,,---,0.00,185.00,VWS V14.01,2013-02-13 15:17:00,
2013-02-13 09:22:00,23.5,19.7,29.72,SSW,198,4.0,10.0,85,0.00,,---,0.00,199.00,VWS V14.01,2013-02-13 15:22:00,
2013-02-13 09:27:00,23.7,21.7,29.72,SSW,205,2.0,9.0,92,0.00,,---,0.00,123.00,VWS V14.01,2013-02-13 15:27:00,
2013-02-13 09:32:00,23.9,19.8,29.72,SSW,200,6.0,6.0,84,0.00,,---,0.00,169.00,VWS V14.01,2013-02-13 15:32:00,
2013-02-13 09:37:00,24.0,19.9,29.72,SSW,192,5.0,8.0,84,0.00,,---,0.00,178.00,VWS V14.01,2013-02-13 15:37:00,
2013-02-13 09:42:00,24.2,20.1,29.72,SSW,196,7.0,7.0,84,0.00,,---,0.00,209.00,VWS V14.01,2013-02-13 15:42:00,
2013-02-13 09:47:00,24.2,20.1,29.72,SSW,203,6.0,7.0,84,0.00,,---,0.00,227.00,VWS V14.01,2013-02-13 15:47:00,
2013-02-13 09:52:00,24.4,20.3,29.72,SSW,199,4.0,7.0,84,0.00,,---,0.00,239.00,VWS V14.01,2013-02-13 15:52:00,
2013-02-13 09:57:00,24.8,20.4,29.72,SSW,202,6.0,7.0,83,0.00,,---,0.00,283.00,VWS V14.01,2013-02-13 15:57:00,
2013-02-13 10:02:00,25.1,20.7,29.71,SSW,192,6.0,9.0,83,0.00,,---,0.00,308.00,VWS V14.01,2013-02-13 16:02:00,
2013-02-13 10:08:00,25.1,20.4,29.71,SSW,207,9.0,10.0,82,0.00,,---,0.00,236.00,VWS V14.01,2013-02-13 16:08:00,
2013-02-13 10:13:00,25.4,21.0,29.71,SSW,202,6.0,9.0,83,0.00,,---,0.00,221.00,VWS V14.01,2013-02-13 16:13:00,
2013-02-13 10:18:00,25.8,21.1,29.71,SW,216,6.0,9.0,82,0.00,,---,0.00,227.00,VWS V14.01,2013-02-13 16:18:00,
2013-02-13 10:23:00,26.1,21.4,29.71,SW,217,10.0,12.0,82,0.00,,---,0.00,239.00,VWS V14.01,2013-02-13 16:23:00,
2013-02-13 10:28:00,26.2,21.2,29.71,SSW,213,4.0,12.0,81,0.00,,---,0.00,251.00,VWS V14.01,2013-02-13 16:28:00,
2013-02-13 10:33:00,26.6,21.6,29.71,SW,217,8.0,11.0,81,0.00,,---,0.00,264.00,VWS V14.01,2013-02-13 16:33:00,
2013-02-13 10:38:00,26.8,21.8,29.71,SW,232,6.0,8.0,81,0.00,,---,0.00,246.00,VWS V14.01,2013-02-13 16:38:00,
2013-02-13 10:43:00,27.3,22.2,29.71,SSW,213,8.0,8.0,81,0.00,,---,0.00,239.00,VWS V14.01,2013-02-13 16:43:00,
2013-02-13 10:48:00,27.5,22.1,29.71,SW,217,7.0,9.0,80,0.00,,---,0.00,234.00,VWS V14.01,2013-02-13 16:48:00,
2013-02-13 10:53:00,27.9,22.5,29.71,SSW,206,6.0,9.0,80,0.00,,---,0.00,225.00,VWS V14.01,2013-02-13 16:53:00,
2013-02-13 10:58:00,28.1,22.4,29.71,SW,218,7.0,10.0,79,0.00,,---,0.00,239.00,VWS V14.01,2013-02-13 16:58:00,
2013-02-13 11:03:00,28.5,22.8,29.71,SW,221,2.0,7.0,79,0.00,,---,0.00,561.00,VWS V14.01,2013-02-13 17:03:00,
2013-02-13 11:08:00,29.1,23.4,29.71,SW,223,9.0,11.0,79,0.00,,---,0.00,489.00,VWS V14.01,2013-02-13 17:08:00,
2013-02-13 11:13:00,29.3,23.3,29.71,SW,223,6.0,12.0,78,0.00,,---,0.00,457.00,VWS V14.01,2013-02-13 17:13:00,
2013-02-13 11:18:00,29.6,23.6,29.71,SW,225,7.0,9.0,78,0.00,,---,0.00,308.00,VWS V14.01,2013-02-13 17:18:00,
2013-02-13 11:23:00,29.7,23.7,29.71,SW,229,5.0,9.0,78,0.00,,---,0.00,385.00,VWS V14.01,2013-02-13 17:23:00,
2013-02-13 11:28:00,30.4,24.4,29.71,SW,218,3.0,6.0,78,0.00,,---,0.00,584.00,VWS V14.01,2013-02-13 17:28:00,
2013-02-13 11:33:00,31.5,25.1,29.70,SW,232,4.0,7.0,77,0.00,,---,0.00,657.00,VWS V14.01,2013-02-13 17:33:00,
2013-02-13 11:39:00,31.5,24.5,29.70,SSW,211,6.0,11.0,75,0.00,,---,0.00,466.00,VWS V14.01,2013-02-13 17:39:00,
2013-02-13 11:44:00,31.9,25.2,29.70,SW,222,9.0,9.0,76,0.00,,---,0.00,631.00,VWS V14.01,2013-02-13 17:44:00,
2013-02-13 11:49:00,32.9,25.9,29.70,WSW,242,4.0,10.0,75,0.00,,---,0.00,473.00,VWS V14.01,2013-02-13 17:49:00,
2013-02-13 11:54:00,33.5,26.1,29.70,SW,217,5.0,6.0,74,0.00,,---,0.00,408.00,VWS V14.01,2013-02-13 17:54:00,
2013-02-13 11:59:00,33.9,26.2,29.70,SSW,200,4.0,7.0,73,0.00,,---,0.00,483.00,VWS V14.01,2013-02-13 17:59:00,
2013-02-13 12:04:00,34.4,26.7,29.68,SW,229,4.0,7.0,73,0.00,,---,0.00,431.00,VWS V14.01,2013-02-13 18:04:00,
2013-02-13 12:09:00,34.7,26.6,29.68,SSW,201,3.0,9.0,72,0.00,,---,0.00,422.00,VWS V14.01,2013-02-13 18:09:00,
2013-02-13 12:14:00,34.8,26.7,29.68,SSW,205,11.0,11.0,72,0.00,,---,0.00,455.00,VWS V14.01,2013-02-13 18:14:00,
2013-02-13 12:19:00,34.9,26.5,29.68,SSW,192,5.0,12.0,71,0.00,,---,0.00,478.00,VWS V14.01,2013-02-13 18:19:00,
2013-02-13 12:24:00,35.0,26.6,29.68,SSW,199,13.0,13.0,71,0.00,,---,0.00,540.00,VWS V14.01,2013-02-13 18:24:00,
2013-02-13 12:29:00,35.2,26.4,29.68,SSW,207,7.0,14.0,70,0.00,,---,0.00,434.00,VWS V14.01,2013-02-13 18:29:00,
2013-02-13 12:34:00,35.4,26.6,29.67,SSW,211,11.0,11.0,70,0.00,,---,0.00,390.00,VWS V14.01,2013-02-13 18:34:00,
2013-02-13 12:39:00,35.3,26.5,29.67,SSW,209,0.0,10.0,70,0.00,,---,0.00,418.00,VWS V14.01,2013-02-13 18:39:00,
2013-02-13 12:45:00,35.7,26.9,29.67,South,182,5.0,10.0,70,0.00,,---,0.00,366.00,VWS V14.01,2013-02-13 18:45:00,
2013-02-13 12:50:00,36.1,26.9,29.66,SSW,195,4.0,7.0,69,0.00,,---,0.00,353.00,VWS V14.01,2013-02-13 18:50:00,
2013-02-13 12:55:00,36.0,26.8,29.66,SSW,199,5.0,10.0,69,0.00,,---,0.00,443.00,VWS V14.01,2013-02-13 18:55:00,
2013-02-13 13:00:00,36.1,26.9,29.66,South,178,7.0,7.0,69,0.00,,---,0.00,462.00,VWS V14.01,2013-02-13 19:00:00,
2013-02-13 13:05:00,36.2,27.0,29.65,South,191,6.0,9.0,69,0.00,,---,0.00,531.00,VWS V14.01,2013-02-13 19:05:00,
2013-02-13 13:10:00,36.4,26.9,29.65,SSW,209,9.0,11.0,68,0.01,,---,0.01,550.00,VWS V14.01,2013-02-13 19:10:00,
2013-02-13 13:15:00,36.6,27.0,29.65,South,191,8.0,12.0,68,0.02,,---,0.02,527.00,VWS V14.01,2013-02-13 19:15:00,
2013-02-13 13:20:00,36.5,27.0,29.64,SW,219,11.0,13.0,68,0.02,,---,0.02,439.00,VWS V14.01,2013-02-13 19:20:00,
2013-02-13 13:25:00,36.9,27.0,29.64,SSW,198,13.0,15.0,67,0.03,,---,0.03,506.00,VWS V14.01,2013-02-13 19:25:00,
2013-02-13 13:30:00,37.3,27.0,29.64,SSW,212,13.0,13.0,66,0.03,,---,0.03,441.00,VWS V14.01,2013-02-13 19:30:00,
2013-02-13 13:35:00,37.1,27.2,29.64,SW,220,10.0,12.0,67,0.03,,---,0.03,234.00,VWS V14.01,2013-02-13 19:35:00,
2013-02-13 13:40:00,37.3,27.4,29.64,SSW,192,8.0,10.0,67,0.04,,---,0.04,366.00,VWS V14.01,2013-02-13 19:40:00,
2013-02-13 13:45:00,37.6,27.3,29.63,South,183,6.0,10.0,66,0.04,,---,0.04,466.00,VWS V14.01,2013-02-13 19:45:00,
2013-02-13 13:50:00,38.0,27.7,29.63,SSW,211,6.0,11.0,66,0.04,,---,0.04,362.00,VWS V14.01,2013-02-13 19:50:00,
2013-02-13 13:55:00,38.4,28.0,29.63,SSW,209,6.0,9.0,66,0.04,,---,0.04,396.00,VWS V14.01,2013-02-13 19:55:00,
2013-02-13 14:01:00,39.0,27.9,29.62,SSW,211,4.0,10.0,64,0.05,,---,0.05,494.00,VWS V14.01,2013-02-13 20:01:00,
2013-02-13 14:06:00,39.2,27.7,29.62,SSW,195,11.0,14.0,63,0.05,,---,0.05,413.00,VWS V14.01,2013-02-13 20:06:00,
2013-02-13 14:11:00,39.3,27.8,29.62,SSW,203,7.0,12.0,63,0.04,,---,0.05,330.00,VWS V14.01,2013-02-13 20:11:00,
2013-02-13 14:16:00,38.9,27.4,29.62,SSW,192,6.0,14.0,63,0.04,,---,0.06,294.00,VWS V14.01,2013-02-13 20:16:00,
2013-02-13 14:21:00,38.7,27.6,29.62,South,188,5.0,9.0,64,0.04,,---,0.06,294.00,VWS V14.01,2013-02-13 20:21:00,
2013-02-13 14:26:00,38.6,27.5,29.62,SSW,200,6.0,10.0,64,0.03,,---,0.06,318.00,VWS V14.01,2013-02-13 20:26:00,
2013-02-13 14:31:00,38.7,28.0,29.61,SSW,203,12.0,13.0,65,0.03,,---,0.06,376.00,VWS V14.01,2013-02-13 20:31:00,
2013-02-13 14:36:00,38.8,28.1,29.61,SSW,194,8.0,10.0,65,0.04,,---,0.07,390.00,VWS V14.01,2013-02-13 20:36:00,
2013-02-13 14:41:00,39.1,28.3,29.61,SSW,211,6.0,11.0,65,0.03,,---,0.07,408.00,VWS V14.01,2013-02-13 20:41:00,
2013-02-13 14:46:00,39.1,28.3,29.61,SSW,204,3.0,6.0,65,0.03,,---,0.07,381.00,VWS V14.01,2013-02-13 20:46:00,
2013-02-13 14:51:00,39.3,28.5,29.61,SSW,213,6.0,10.0,65,0.03,,---,0.07,397.00,VWS V14.01,2013-02-13 20:51:00,
2013-02-13 14:56:00,39.3,28.2,29.61,SW,232,12.0,14.0,64,0.03,,---,0.07,234.00,VWS V14.01,2013-02-13 20:56:00,
2013-02-13 15:01:00,39.0,28.2,29.62,SSW,209,7.0,9.0,65,0.02,,---,0.07,181.00,VWS V14.01,2013-02-13 21:01:00,
2013-02-13 15:07:00,38.7,28.0,29.62,WSW,249,7.0,11.0,65,0.03,,---,0.08,197.00,VWS V14.01,2013-02-13 21:07:00,
2013-02-13 15:12:00,38.8,28.4,29.62,SW,233,7.0,9.0,66,0.03,,---,0.08,186.00,VWS V14.01,2013-02-13 21:12:00,
2013-02-13 15:17:00,38.6,27.9,29.62,SW,229,7.0,14.0,65,0.02,,---,0.08,163.00,VWS V14.01,2013-02-13 21:17:00,
2013-02-13 15:22:00,38.4,28.0,29.62,SW,229,6.0,11.0,66,0.02,,---,0.08,146.00,VWS V14.01,2013-02-13 21:22:00,
2013-02-13 15:27:00,38.3,28.0,29.62,SW,215,11.0,14.0,66,0.02,,---,0.08,123.00,VWS V14.01,2013-02-13 21:27:00,
2013-02-13 15:32:00,38.0,28.0,29.63,SW,221,8.0,13.0,67,0.02,,---,0.08,116.00,VWS V14.01,2013-02-13 21:32:00,
2013-02-13 15:37:00,38.0,28.0,29.63,SW,214,5.0,8.0,67,0.01,,---,0.08,113.00,VWS V14.01,2013-02-13 21:37:00,
2013-02-13 15:42:00,37.9,28.3,29.63,SW,217,5.0,9.0,68,0.01,,---,0.08,118.00,VWS V14.01,2013-02-13 21:42:00,
2013-02-13 15:47:00,37.8,28.2,29.63,SSW,205,7.0,7.0,68,0.01,,---,0.08,132.00,VWS V14.01,2013-02-13 21:47:00,
2013-02-13 15:52:00,37.6,28.4,29.63,SSW,213,4.0,6.0,69,0.01,,---,0.08,128.00,VWS V14.01,2013-02-13 21:52:00,
2013-02-13 15:57:00,37.1,27.9,29.63,SW,217,4.0,7.0,69,0.01,,---,0.08,130.00,VWS V14.01,2013-02-13 21:57:00,
2013-02-13 16:02:00,36.9,28.0,29.62,SSW,202,4.0,7.0,70,0.01,,---,0.08,98.00,VWS V14.01,2013-02-13 22:02:00,
2013-02-13 16:07:00,36.8,28.0,29.62,SW,226,6.0,7.0,70,0.00,,---,0.08,88.00,VWS V14.01,2013-02-13 22:07:00,
2013-02-13 16:12:00,36.7,27.9,29.62,SSW,207,5.0,11.0,70,0.00,,---,0.08,98.00,VWS V14.01,2013-02-13 22:12:00,
2013-02-13 16:17:00,36.6,28.1,29.62,SW,236,3.0,7.0,71,0.00,,---,0.08,91.00,VWS V14.01,2013-02-13 22:17:00,
2013-02-13 16:23:00,36.6,28.4,29.62,SW,217,5.0,7.0,72,0.00,,---,0.08,79.00,VWS V14.01,2013-02-13 22:23:00,
2013-02-13 16:28:00,36.4,28.6,29.62,SW,215,2.0,6.0,73,0.00,,---,0.08,63.00,VWS V14.01,2013-02-13 22:28:00,
2013-02-13 16:33:00,36.4,28.6,29.62,SW,225,7.0,7.0,73,0.00,,---,0.08,53.00,VWS V14.01,2013-02-13 22:33:00,
2013-02-13 16:38:00,36.2,28.7,29.62,SW,225,3.0,5.0,74,0.00,,---,0.08,40.00,VWS V14.01,2013-02-13 22:38:00,
2013-02-13 16:43:00,36.2,29.4,29.62,SW,221,6.0,7.0,76,0.01,,---,0.09,32.00,VWS V14.01,2013-02-13 22:43:00,
2013-02-13 16:48:00,36.0,29.5,29.63,SW,219,6.0,6.0,77,0.01,,---,0.09,30.00,VWS V14.01,2013-02-13 22:48:00,
2013-02-13 16:53:00,35.9,29.7,29.63,SW,219,5.0,5.0,78,0.01,,---,0.09,26.00,VWS V14.01,2013-02-13 22:53:00,
2013-02-13 16:58:00,35.8,29.9,29.63,SW,219,2.0,6.0,79,0.01,,---,0.09,21.00,VWS V14.01,2013-02-13 22:58:00,
2013-02-13 17:03:00,35.6,30.0,29.62,SW,221,4.0,5.0,80,0.01,,---,0.09,14.00,VWS V14.01,2013-02-13 23:03:00,
2013-02-13 17:08:00,35.5,30.0,29.62,SW,221,5.0,5.0,80,0.01,,---,0.09,11.00,VWS V14.01,2013-02-13 23:08:00,
2013-02-13 17:13:00,35.3,30.1,29.62,SSW,211,6.0,6.0,81,0.01,,---,0.09,9.00,VWS V14.01,2013-02-13 23:13:00,
2013-02-13 17:18:00,35.2,30.3,29.62,SSW,212,0.0,6.0,82,0.01,,---,0.09,9.00,VWS V14.01,2013-02-13 23:18:00,
2013-02-13 17:23:00,35.1,30.5,29.62,SSW,211,4.0,5.0,83,0.01,,---,0.09,9.00,VWS V14.01,2013-02-13 23:23:00,
2013-02-13 17:28:00,34.9,30.6,29.62,SSW,212,3.0,3.0,84,0.01,,---,0.09,5.00,VWS V14.01,2013-02-13 23:28:00,
2013-02-13 17:33:00,34.8,30.5,29.62,SSW,212,0.0,0.0,84,0.01,,---,0.09,0.00,VWS V14.01,2013-02-13 23:33:00,
2013-02-13 17:38:00,34.7,30.7,29.62,SSW,212,0.0,0.0,85,0.01,,---,0.09,0.00,VWS V14.01,2013-02-13 23:38:00,
2013-02-13 17:44:00,34.7,30.7,29.62,SSW,212,0.0,0.0,85,0.00,,---,0.09,0.00,VWS V14.01,2013-02-13 23:44:00,
2013-02-13 17:49:00,34.7,30.7,29.62,SSW,212,0.0,0.0,85,0.00,,---,0.09,0.00,VWS V14.01,2013-02-13 23:49:00,
2013-02-13 17:54:00,34.6,30.9,29.62,SSW,212,0.0,0.0,86,0.00,,---,0.09,0.00,VWS V14.01,2013-02-13 23:54:00,
2013-02-13 17:59:00,34.6,30.9,29.62,SSW,212,0.0,0.0,86,0.00,,---,0.09,0.00,VWS V14.01,2013-02-13 23:59:00,
2013-02-13 18:04:00,34.5,30.8,29.61,SSW,212,2.0,3.0,86,0.00,,---,0.09,0.00,VWS V14.01,2013-02-14 00:04:00,
2013-02-13 18:09:00,34.4,30.9,29.61,SSW,212,0.0,2.0,87,0.00,,---,0.09,0.00,VWS V14.01,2013-02-14 00:09:00,
2013-02-13 18:14:00,34.3,30.8,29.61,SSW,212,0.0,0.0,87,0.00,,---,0.09,0.00,VWS V14.01,2013-02-14 00:14:00,
2013-02-13 18:19:00,34.2,31.0,29.62,SSW,212,0.0,2.0,88,0.00,,---,0.09,0.00,VWS V14.01,2013-02-14 00:19:00,
2013-02-13 18:24:00,34.0,31.1,29.62,SSW,211,0.0,2.0,89,0.00,,---,0.09,0.00,VWS V14.01,2013-02-14 00:24:00,
2013-02-13 18:29:00,33.9,31.0,29.62,SSW,210,0.0,0.0,89,0.00,,---,0.09,0.00,VWS V14.01,2013-02-14 00:29:00,
2013-02-13 18:34:00,33.7,31.1,29.61,SSW,207,0.0,1.0,90,0.00,,---,0.09,0.00,VWS V14.01,2013-02-14 00:34:00,
2013-02-13 18:39:00,33.6,31.0,29.61,SSW,207,0.0,0.0,90,0.00,,---,0.09,0.00,VWS V14.01,2013-02-14 00:39:00,
2013-02-13 18:44:00,33.5,31.2,29.61,SSW,206,0.0,0.0,91,0.00,,---,0.09,0.00,VWS V14.01,2013-02-14 00:44:00,
2013-02-13 18:49:00,33.4,31.1,29.61,SSW,206,0.0,0.0,91,0.00,,---,0.09,0.00,VWS V14.01,2013-02-14 00:49:00,
2013-02-13 18:54:00,33.3,31.0,29.61,SSW,207,0.0,0.0,91,0.00,,---,0.09,0.00,VWS V14.01,2013-02-14 00:54:00,
2013-02-13 18:59:00,33.2,31.1,29.61,SSW,207,0.0,2.0,92,0.00,,---,0.09,0.00,VWS V14.01,2013-02-14 00:59:00,
2013-02-13 19:04:00,33.2,31.1,29.61,SSW,207,0.0,0.0,92,0.00,,---,0.09,0.00,VWS V14.01,2013-02-14 01:04:00,
2013-02-13 19:10:00,33.2,31.1,29.61,SSW,207,0.0,0.0,92,0.00,,---,0.09,0.00,VWS V14.01,2013-02-14 01:10:00,
2013-02-13 19:15:00,33.1,31.3,29.61,SSW,206,0.0,1.0,93,0.00,,---,0.09,0.00,VWS V14.01,2013-02-14 01:15:00,
2013-02-13 19:20:00,33.1,31.3,29.60,SSW,206,1.0,3.0,93,0.00,,---,0.09,0.00,VWS V14.01,2013-02-14 01:20:00,
2013-02-13 19:25:00,33.0,31.2,29.60,SSW,206,1.0,1.0,93,0.00,,---,0.09,0.00,VWS V14.01,2013-02-14 01:25:00,
2013-02-13 19:30:00,33.1,31.3,29.60,SSW,207,0.0,1.0,93,0.00,,---,0.09,0.00,VWS V14.01,2013-02-14 01:30:00,
2013-02-13 19:35:00,33.2,31.4,29.60,SSW,206,0.0,2.0,93,0.00,,---,0.09,0.00,VWS V14.01,2013-02-14 01:35:00,
2013-02-13 19:40:00,33.2,31.4,29.60,SSW,205,0.0,3.0,93,0.00,,---,0.09,0.00,VWS V14.01,2013-02-14 01:40:00,
2013-02-13 19:45:00,33.2,31.7,29.60,SSW,205,1.0,2.0,94,0.00,,---,0.09,0.00,VWS V14.01,2013-02-14 01:45:00,
2013-02-13 19:50:00,33.2,31.7,29.60,SSW,205,0.0,2.0,94,0.00,,---,0.09,0.00,VWS V14.01,2013-02-14 01:50:00,
2013-02-13 19:55:00,33.1,31.6,29.60,SSW,196,2.0,2.0,94,0.00,,---,0.09,0.00,VWS V14.01,2013-02-14 01:55:00,
2013-02-13 20:00:00,33.1,31.6,29.59,SSW,193,3.0,3.0,94,0.00,,---,0.09,0.00,VWS V14.01,2013-02-14 02:00:00,
2013-02-13 20:05:00,33.0,31.5,29.59,South,191,2.0,2.0,94,0.00,,---,0.09,0.00,VWS V14.01,2013-02-14 02:05:00,
2013-02-13 20:11:00,33.0,31.5,29.59,South,191,1.0,3.0,94,0.00,,---,0.09,0.00,VWS V14.01,2013-02-14 02:11:00,
2013-02-13 20:16:00,33.1,31.6,29.58,South,186,1.0,3.0,94,0.00,,---,0.09,0.00,VWS V14.01,2013-02-14 02:16:00,
2013-02-13 20:21:00,33.1,31.6,29.58,South,186,0.0,2.0,94,0.00,,---,0.09,0.00,VWS V14.01,2013-02-14 02:21:00,
2013-02-13 20:26:00,33.1,31.6,29.58,South,186,2.0,2.0,94,0.00,,---,0.09,0.00,VWS V14.01,2013-02-14 02:26:00,
2013-02-13 20:31:00,33.1,31.6,29.57,South,186,2.0,4.0,94,0.00,,---,0.09,0.00,VWS V14.01,2013-02-14 02:31:00,
2013-02-13 20:36:00,33.1,31.6,29.57,South,186,0.0,3.0,94,0.00,,---,0.09,0.00,VWS V14.01,2013-02-14 02:36:00,
2013-02-13 20:41:00,33.1,31.8,29.57,South,186,1.0,2.0,95,0.00,,---,0.09,0.00,VWS V14.01,2013-02-14 02:41:00,
2013-02-13 20:46:00,33.0,31.5,29.57,South,186,1.0,3.0,94,0.00,,---,0.09,0.00,VWS V14.01,2013-02-14 02:46:00,
2013-02-13 20:51:00,33.0,31.5,29.57,South,186,3.0,3.0,94,0.00,,---,0.09,0.00,VWS V14.01,2013-02-14 02:51:00,
2013-02-13 20:56:00,33.0,31.5,29.57,South,186,1.0,2.0,94,0.00,,---,0.09,0.00,VWS V14.01,2013-02-14 02:56:00,
2013-02-13 21:01:00,33.0,31.7,29.57,South,186,0.0,3.0,95,0.00,,---,0.09,0.00,VWS V14.01,2013-02-14 03:01:00,
2013-02-13 21:06:00,33.0,31.7,29.57,South,186,2.0,3.0,95,0.00,,---,0.09,0.00,VWS V14.01,2013-02-14 03:06:00,
2013-02-13 21:12:00,33.0,31.7,29.57,South,186,1.0,2.0,95,0.00,,---,0.09,0.00,VWS V14.01,2013-02-14 03:12:00,
2013-02-13 21:17:00,32.9,31.6,29.57,South,186,1.0,3.0,95,0.00,,---,0.09,0.00,VWS V14.01,2013-02-14 03:17:00,
2013-02-13 21:22:00,32.9,31.6,29.57,South,186,2.0,3.0,95,0.00,,---,0.09,0.00,VWS V14.01,2013-02-14 03:22:00,
2013-02-13 21:27:00,32.8,31.5,29.57,South,186,1.0,2.0,95,0.00,,---,0.09,0.00,VWS V14.01,2013-02-14 03:27:00,
2013-02-13 21:32:00,32.9,31.6,29.56,South,184,2.0,2.0,95,0.00,,---,0.09,0.00,VWS V14.01,2013-02-14 03:32:00,
2013-02-13 21:37:00,32.8,31.5,29.56,South,186,0.0,2.0,95,0.00,,---,0.09,0.00,VWS V14.01,2013-02-14 03:37:00,
2013-02-13 21:42:00,32.7,31.4,29.56,South,186,1.0,1.0,95,0.00,,---,0.09,0.00,VWS V14.01,2013-02-14 03:42:00,
2013-02-13 21:47:00,32.7,31.4,29.56,South,186,2.0,3.0,95,0.00,,---,0.09,0.00,VWS V14.01,2013-02-14 03:47:00,
2013-02-13 21:52:00,32.7,31.4,29.56,South,186,0.0,0.0,95,0.00,,---,0.09,0.00,VWS V14.01,2013-02-14 03:52:00,
2013-02-13 21:57:00,32.7,31.4,29.56,South,186,0.0,1.0,95,0.00,,---,0.09,0.00,VWS V14.01,2013-02-14 03:57:00,
2013-02-13 22:02:00,32.6,31.3,29.56,South,186,0.0,0.0,95,0.00,,---,0.09,0.00,VWS V14.01,2013-02-14 04:02:00,
2013-02-13 22:07:00,32.6,31.3,29.56,South,186,0.0,0.0,95,0.00,,---,0.09,0.00,VWS V14.01,2013-02-14 04:07:00,
2013-02-13 22:12:00,32.6,31.3,29.56,South,186,0.0,3.0,95,0.00,,---,0.09,0.00,VWS V14.01,2013-02-14 04:12:00,
2013-02-13 22:18:00,32.6,31.3,29.56,South,186,0.0,0.0,95,0.00,,---,0.09,0.00,VWS V14.01,2013-02-14 04:18:00,
2013-02-13 22:23:00,32.6,31.3,29.56,South,186,0.0,2.0,95,0.00,,---,0.09,0.00,VWS V14.01,2013-02-14 04:23:00,
2013-02-13 22:28:00,32.6,31.3,29.56,South,186,1.0,3.0,95,0.00,,---,0.09,0.00,VWS V14.01,2013-02-14 04:28:00,
2013-02-13 22:33:00,32.6,31.3,29.54,South,186,0.0,2.0,95,0.00,,---,0.09,0.00,VWS V14.01,2013-02-14 04:33:00,
2013-02-13 22:38:00,32.6,31.3,29.54,South,186,2.0,2.0,95,0.00,,---,0.09,0.00,VWS V14.01,2013-02-14 04:38:00,
2013-02-13 22:43:00,32.6,31.3,29.54,South,185,3.0,4.0,95,0.00,,---,0.09,0.00,VWS V14.01,2013-02-14 04:43:00,
2013-02-13 22:48:00,32.6,31.6,29.56,South,186,0.0,4.0,96,0.00,,---,0.09,0.00,VWS V14.01,2013-02-14 04:48:00,
2013-02-13 22:53:00,32.6,31.6,29.56,ESE,120,1.0,3.0,96,0.00,,---,0.09,0.00,VWS V14.01,2013-02-14 04:53:00,
2013-02-13 22:58:00,32.5,31.5,29.56,East,98,3.0,5.0,96,0.00,,---,0.09,0.00,VWS V14.01,2013-02-14 04:58:00,
2013-02-13 23:00:00,32.5,31.5,29.56,East,96,2.0,5.0,96,0.00,,---,0.09,0.00,VWS V14.01,2013-02-14 05:00:00,
2013-02-13 23:01:00,32.5,31.5,29.56,East,95,2.0,5.0,96,0.00,,---,0.09,0.00,VWS V14.01,2013-02-14 05:01:00,
2013-02-13 23:06:00,32.5,31.2,29.56,ENE,75,3.0,5.0,95,0.00,,---,0.09,0.00,VWS V14.01,2013-02-14 05:06:00,
2013-02-13 23:11:00,32.5,31.2,29.56,ENE,72,2.0,5.0,95,0.00,,---,0.09,0.00,VWS V14.01,2013-02-14 05:11:00,
2013-02-13 23:16:00,32.5,31.5,29.56,NE,53,3.0,9.0,96,0.00,,---,0.09,0.00,VWS V14.01,2013-02-14 05:16:00,
2013-02-13 23:21:00,32.5,31.5,29.56,NE,46,3.0,6.0,96,0.00,,---,0.09,0.00,VWS V14.01,2013-02-14 05:21:00,
2013-02-13 23:26:00,32.5,31.5,29.56,NE,46,0.0,4.0,96,0.00,,---,0.09,0.00,VWS V14.01,2013-02-14 05:26:00,
2013-02-13 23:31:00,32.5,31.5,29.56,NE,40,4.0,5.0,96,0.00,,---,0.09,0.00,VWS V14.01,2013-02-14 05:31:00,
2013-02-13 23:36:00,32.5,31.5,29.56,NNE,29,4.0,6.0,96,0.00,,---,0.09,0.00,VWS V14.01,2013-02-14 05:36:00,
2013-02-13 23:41:00,32.4,31.4,29.56,NNE,30,3.0,3.0,96,0.00,,---,0.09,0.00,VWS V14.01,2013-02-14 05:41:00,
2013-02-13 23:46:00,32.4,31.4,29.57,NNE,25,2.0,4.0,96,0.00,,---,0.09,0.00,VWS V14.01,2013-02-14 05:46:00,
2013-02-13 23:51:00,32.4,31.4,29.57,NNE,23,2.0,5.0,96,0.00,,---,0.09,0.00,VWS V14.01,2013-02-14 05:51:00,
2013-02-13 23:56:00,32.3,31.3,29.57,NNE,24,1.0,3.0,96,0.00,,---,0.09,0.00,VWS V14.01,2013-02-14 05:56:00,